STARLINK-30266 (57529 NORAD) Tracking and Keplerian Element Data

This shows tracking and keplerian element data for the satellite.

Feedback or suggestion? Click here.




ElementValue
Catalog57529
NameSTARLINK-30266
Epoch Orbit406
Epoch Day239.16667824
Epoch Year2023
RAAN359.5916
Inclination42.9996
Eccentricity0.0001463
Argument of Perigee256.2799
Mean Anonmoly101.9431
Mean Motion15.54781042
Decay Rate-0.01620288
L11 57529U 23115J 23239.16667824 -.01620288 00000+0 -26375-1 0 9991
L22 57529 42.9996 359.5916 0001463 256.2799 101.9431 15.54781042 4067



Live tracking and technical data element details for STARLINK-30266 (NORAD 57529). STARLINK-30266 can be tracked NOW for your location showing map with azimuth and elevation plus other details from your city location.







IsCatalogInMostPopularTable: catalog: 57529, numindb: 5
Update: records affected: 1



GetName: 57529 STARLINK-30266

Hit Count: updated at: Tue, 26 Sep 2023 13:06:10 GMT